This is the latest recevied weather packets stored in our database for station/object KF4PPJ. If no packets are shown the sender has not sent any weather packets the latest 1 day(s).
| Time | Temp. | Humidity | Pressure | Rain* | Wind** | Luminosity | Snow |
|---|---|---|---|---|---|---|---|
| 1778030723 | 17.78° C | 68% | 1017.8 hPa | 0 mm | 1.34 m/s, 226° | 59 W/m² | - |
| 1778030420 | 17.78° C | 68% | 1017.9 hPa | 0 mm | 0.45 m/s, 212° | 90 W/m² | - |
| 1778030128 | 17.78° C | 67% | 1018.1 hPa | 0 mm | 0.89 m/s, 211° | 190 W/m² | - |
| 1778029814 | 17.78° C | 67% | 1017.9 hPa | 0 mm | 0.45 m/s, 164° | 211 W/m² | - |
| 1778029513 | 18.33° C | 67% | 1017.8 hPa | 0 mm | 0.89 m/s, 196° | 277 W/m² | - |
| 1778029209 | 18.33° C | 67% | 1017.9 hPa | 0 mm | 1.34 m/s, 181° | 275 W/m² | - |
| 1778028907 | 18.33° C | 67% | 1018 hPa | 0 mm | 0.45 m/s, 165° | 294 W/m² | - |
| 1778028601 | 17.78° C | 67% | 1018 hPa | 0 mm | 1.34 m/s, 171° | 276 W/m² | - |
| 1778028300 | 17.78° C | 67% | 1017.9 hPa | 0 mm | 1.34 m/s, 162° | 286 W/m² | - |
| 1778027995 | 18.33° C | 66% | 1018.1 hPa | 0 mm | 1.34 m/s, 161° | 318 W/m² | - |
| 1778027692 | 18.33° C | 67% | 1018.1 hPa | 0 mm | 1.34 m/s, 185° | 323 W/m² | - |
| 1778027388 | 18.33° C | 65% | 1018.2 hPa | 0 mm | 1.34 m/s, 188° | 357 W/m² | - |
| 1778027085 | 18.33° C | 66% | 1018.2 hPa | 0 mm | 1.79 m/s, 152° | 367 W/m² | - |
| 1778026780 | 17.78° C | 67% | 1018.2 hPa | 0 mm | 0.89 m/s, 181° | 373 W/m² | - |
| 1778026477 | 18.33° C | 67% | 1018.1 hPa | 0 mm | 1.34 m/s, 176° | 403 W/m² | - |
| 1778026175 | 18.33° C | 67% | 1018.2 hPa | 0 mm | 0.89 m/s, 172° | 411 W/m² | - |
| 1778025872 | 18.33° C | 66% | 1018.3 hPa | 0 mm | 1.34 m/s, 226° | 436 W/m² | - |
| 1778025569 | 18.33° C | 66% | 1018.2 hPa | 0 mm | 1.79 m/s, 191° | 447 W/m² | - |
| 1778025267 | 18.33° C | 67% | 1018.2 hPa | 0 mm | 0.45 m/s, 179° | 437 W/m² | - |
| 1778024963 | 17.78° C | 68% | 1018.4 hPa | 0 mm | 0.45 m/s, 180° | 462 W/m² | - |
| 1778024661 | 17.78° C | 68% | 1018.4 hPa | 0 mm | 1.79 m/s, 204° | 471 W/m² | - |
| 1778024357 | 18.33° C | 67% | 1018.4 hPa | 0 mm | 0.89 m/s, 211° | 466 W/m² | - |
| 1778024055 | 17.78° C | 68% | 1018.5 hPa | 0 mm | 1.34 m/s, 215° | 522 W/m² | - |
| 1778023753 | 17.78° C | 68% | 1018.6 hPa | 0 mm | 1.79 m/s, 203° | 495 W/m² | - |
| 1778023451 | 17.78° C | 68% | 1018.6 hPa | 0 mm | 0.89 m/s, 180° | 386 W/m² | - |
* Rain latest hour (hover to see other rain measurements)
** Current wind speed in m/s (hover to see current wind gust speed)